Weather History for Victorville, CA

Change the Weather History Date:

Monday, October 29, 2012

  Actual Average (KSBD) Record (KSBD)
Temperature  
Mean Temperature 67 °F -  
Max Temperature 84 °F 76 °F 87 °F (2012)
Min Temperature 50 °F 47 °F 46 °F (2011)
Cooling Degree Days 2    
Growing Degree Days 17 (Base 50)    
Moisture  
Dew Point 20 °F    
Average Humidity 20    
Maximum Humidity 37    
Minimum Humidity 9    
Precipitation  
Precipitation 0.00 in - - ()
Sea Level Pressure  
Sea Level Pressure 30.12 in    
Wind  
Wind Speed 7 mph (SE)    
Max Wind Speed 10 mph    
Max Gust Speed -    
Visibility 10 miles    
Events      
Averages and records for this station are not official NWS values.
T = Trace of Precipitation, MM = Missing Value Source: NWS Daily Summary

Daily Weather History Graph

Daily Weather History Graph

Search for Another Location

Airport:

Trip Planner

Search our weather history database for the weather conditions in past years. The results will help you decide how hot, cold, wet, or windy it might be!

Date:

Astronomy

Oct. 29, 2012 Rise Set
Actual Time 7:07 AM PDT 5:58 PM PDT
Civil Twilight 6:41 AM PDT 6:24 PM PDT
Nautical Twilight 6:12 AM PDT 6:53 PM PDT
Astronomical Twilight 5:42 AM PDT 7:23 PM PDT
Moon 5:55 PM PDT (10/29) 7:01 AM PDT (10/29)
Length of Visible Light 11h 42m
Length of Day
10h 50m
Full, 100% of the Moon is Illuminated
Oct 29
Full
Oct 29
Full
Nov 6
Last Quarter
Nov 13
New
Nov 20
First Quarter

Hourly Weather History & Observations

Time (PDT) Temp. Dew Point Humidity Pressure Visibility Wind Dir Wind Speed Gust Speed Precip Events Conditions
12:15 AM 53.6 °F 19.4 °F 26% 30.10 in 10.0 mi SE 8.1 mph - N/A   Clear
12:35 AM 53.6 °F 19.4 °F 26% 30.10 in 10.0 mi ESE 8.1 mph - N/A   Clear
12:55 AM 55.4 °F 19.4 °F 25% 30.10 in 10.0 mi SE 9.2 mph - N/A   Clear
1:15 AM 53.6 °F 19.4 °F 26% 30.10 in 10.0 mi SE 9.2 mph - N/A   Clear
1:35 AM 51.8 °F 21.2 °F 30% 30.10 in 10.0 mi SE 9.2 mph - N/A   Clear
1:55 AM 53.6 °F 21.2 °F 28% 30.10 in 10.0 mi SE 6.9 mph - N/A   Clear
2:35 AM 55.4 °F 23.0 °F 29% 30.10 in 10.0 mi SE 9.2 mph - N/A   Clear
2:55 AM 53.6 °F 21.2 °F 28% 30.10 in 10.0 mi SE 8.1 mph - N/A   Clear
3:15 AM 53.6 °F 21.2 °F 28% 30.10 in 10.0 mi SE 10.4 mph - N/A   Clear
3:35 AM 53.6 °F 21.2 °F 28% 30.09 in 10.0 mi SE 10.4 mph - N/A   Clear
3:55 AM 51.8 °F 21.2 °F 30% 30.09 in 10.0 mi SE 5.8 mph - N/A   Clear
4:15 AM 53.6 °F 21.2 °F 28% 30.09 in 10.0 mi SSE 6.9 mph - N/A   Clear
4:55 AM 51.8 °F 23.0 °F 33% 30.10 in 10.0 mi SE 10.4 mph - N/A   Clear
5:15 AM 51.8 °F 21.2 °F 30% 30.10 in 10.0 mi SE 10.4 mph - N/A   Clear
5:35 AM 51.8 °F 23.0 °F 33% 30.10 in 10.0 mi SSE 6.9 mph - N/A   Clear
5:55 AM 50.0 °F 23.0 °F 35% 30.11 in 10.0 mi SSE 8.1 mph - N/A   Clear
6:15 AM 50.0 °F 24.8 °F 37% 30.11 in 10.0 mi SE 8.1 mph - N/A   Clear
6:35 AM 53.6 °F 21.2 °F 28% 30.11 in 10.0 mi SE 6.9 mph - N/A   Clear
6:55 AM 51.8 °F 21.2 °F 30% 30.11 in 10.0 mi SE 8.1 mph - N/A   Clear
7:15 AM 51.8 °F 21.2 °F 30% 30.12 in 10.0 mi SE 8.1 mph - N/A   Clear
7:35 AM 51.8 °F 21.2 °F 30% 30.13 in 10.0 mi SE 6.9 mph - N/A   Clear
7:55 AM 53.6 °F 19.4 °F 26% 30.13 in 10.0 mi SSE 8.1 mph - N/A   Clear
8:15 AM 57.2 °F 21.2 °F 25% 30.15 in 10.0 mi ESE 8.1 mph - N/A   Clear
8:35 AM 60.8 °F 19.4 °F 20% 30.16 in 10.0 mi SE 8.1 mph - N/A   Clear
8:55 AM 62.6 °F 17.6 °F 18% 30.16 in 10.0 mi ESE 8.1 mph - N/A   Clear
9:15 AM 62.6 °F 17.6 °F 18% 30.17 in 10.0 mi SE 6.9 mph - N/A   Clear
9:35 AM 64.4 °F 17.6 °F 16% 30.18 in 10.0 mi SE 5.8 mph - N/A   Clear
9:55 AM 64.4 °F 19.4 °F 18% 30.18 in 10.0 mi SE 5.8 mph - N/A   Clear
10:15 AM 68.0 °F 19.4 °F 16% 30.18 in 10.0 mi SE 4.6 mph - N/A   Clear
10:55 AM 71.6 °F 19.4 °F 14% 30.18 in 10.0 mi Calm Calm - N/A   Clear
11:15 AM 73.4 °F 19.4 °F 13% 30.17 in 10.0 mi SE 4.6 mph - N/A   Clear
11:55 AM 78.8 °F 21.2 °F 12% 30.16 in 10.0 mi Calm Calm - N/A   Clear
12:15 PM 78.8 °F 21.2 °F 12% 30.15 in 10.0 mi Calm Calm - N/A   Clear
12:35 PM 80.6 °F 21.2 °F 11% 30.14 in 10.0 mi Calm Calm - N/A   Clear
12:55 PM 80.6 °F 21.2 °F 11% 30.13 in 10.0 mi WNW 3.5 mph - N/A   Clear
1:15 PM 80.6 °F 21.2 °F 11% 30.12 in 10.0 mi Calm Calm - N/A   Clear
1:35 PM 82.4 °F 21.2 °F 10% 30.11 in 10.0 mi East 3.5 mph - N/A   Clear
1:55 PM 82.4 °F 17.6 °F 9% 30.10 in 10.0 mi Calm Calm - N/A   Clear
2:15 PM 82.4 °F 17.6 °F 9% 30.10 in 10.0 mi East 3.5 mph - N/A   Clear
2:35 PM 82.4 °F 17.6 °F 9% 30.09 in 10.0 mi Calm Calm - N/A   Clear
3:15 PM 84.2 °F 19.4 °F 9% 30.09 in 10.0 mi NNE 4.6 mph - N/A   Clear
3:35 PM 82.4 °F 19.4 °F 10% 30.08 in 10.0 mi Calm Calm - N/A   Clear
3:55 PM 82.4 °F 17.6 °F 9% 30.08 in 10.0 mi Calm Calm - N/A   Clear
4:15 PM 82.4 °F 19.4 °F 10% 30.08 in 10.0 mi NW 3.5 mph - N/A   Clear
4:35 PM 82.4 °F 17.6 °F 9% 30.08 in 10.0 mi NE 3.5 mph - N/A   Clear
4:55 PM 82.4 °F 17.6 °F 9% 30.08 in 10.0 mi Calm Calm - N/A   Clear
5:15 PM 80.6 °F 19.4 °F 10% 30.08 in 10.0 mi North 6.9 mph - N/A   Clear
5:35 PM 78.8 °F 19.4 °F 11% 30.09 in 10.0 mi North 5.8 mph - N/A   Clear
5:55 PM 77.0 °F 19.4 °F 12% 30.09 in 10.0 mi North 8.1 mph - N/A   Clear
8:35 PM 62.6 °F 15.8 °F 16% 30.12 in 10.0 mi SSW 8.1 mph - N/A   Clear
8:55 PM 62.6 °F 15.8 °F 16% 30.13 in 10.0 mi SSE 5.8 mph - N/A   Clear
9:15 PM 60.8 °F 17.6 °F 19% 30.13 in 10.0 mi SSE 5.8 mph - N/A   Clear
9:35 PM 59.0 °F 17.6 °F 20% 30.14 in 10.0 mi SSE 8.1 mph - N/A   Clear
9:55 PM 60.8 °F 19.4 °F 20% 30.14 in 10.0 mi ESE 5.8 mph - N/A   Clear
10:15 PM 60.8 °F 21.2 °F 22% 30.14 in 10.0 mi ESE 6.9 mph - N/A   Clear
10:35 PM 62.6 °F 19.4 °F 19% 30.14 in 10.0 mi ESE 6.9 mph - N/A   Clear
10:55 PM 59.0 °F 19.4 °F 22% 30.14 in 10.0 mi SE 4.6 mph - N/A   Clear
11:15 PM 57.2 °F 19.4 °F 23% 30.14 in 10.0 mi SE 9.2 mph - N/A   Clear
11:35 PM 57.2 °F 21.2 °F 25% 30.13 in 10.0 mi SE 8.1 mph - N/A   Clear
11:55 PM 55.4 °F 19.4 °F 25% 30.12 in 10.0 mi SE 6.9 mph - N/A   Clear